96P/Machholz 1 (2023)

Japanese version
Home page
Updated on November 3, 2020

---------------------------------------------------------------------

* Profile

* Orbital Elements

Epoch 2023 Jan. 16.0 TT = JDT 2459960.5
T 2023 Jan. 31.08465 TT                                 MPCW
q   0.1164254            (2000.0)            P               Q
n   0.18680100     Peri.   14.74858     -0.20313326     -0.50076303
a   3.0307487      Node    93.95410     +0.79107878     -0.59032451
e   0.9615853      Incl.   57.50295     +0.57700195     +0.63305083
P   5.28
From 925 observations 2007 Apr. 9-2017 Aug. 19, mean residual 0".6.
     Nongravitational parameters A1 = -0.01, A2 = -0.0002.

* Finding Charts

* Magnitudes Graph

        m1 = 12.7 + 5 log d + 12.0 log r

---------------------------------------------------------------------

The orbital elements are published on M.P.E.C. 2017-T14.
The charts are made with StellaNavigator Ver.10 (AstroArts).
The magnitudes graphs are made with Comet for Windows.

---------------------------------------------------------------------

Copyright(C) Seiichi Yoshida (comet@aerith.net). All rights reserved.